Tracking 33446 objects as of 10-Mar-2026
HD Live streaming from Space Station
objects crossing your sky now

STARLINK-35570

Track STARLINK-35570 now!
10-day predictions
STARLINK-35570 is classified as:


NORAD ID: 66090
Int'l Code: 2025-236E
Perigee: 481.3 km
Apogee: 483.3 km
Inclination: 53.2 °
Period: 94.1 minutes
Semi major axis: 6853 km
RCS: Unknown
Launch date: October 19, 2025
Source: United States (US)
Launch site: AIR FORCE WESTERN TEST RANGE (AFWTR)
Your satellite tracking list
Your tracking list is empty




NASA's NSSDC Master Catalog

Two Line Element Set (TLE):
1 66090U 25236E   26069.11483086  .00029146  00000-0  99176-3 0  9990
2 66090  53.1587 101.6164 0001497  93.7138 266.4034 15.30218299 23014
Source of the keplerian elements: AFSPC